contact: severine.martini@mio.osupytheas.fr, dominique.lefevre@mio.osupytheas.fr
Project:EMSO Ligure-ouest http://www.emso-fr.org/EMSO-France
Sensor Optode, line 4330 Serial 272 
DOI : "https://doi.org/10.17882/97948" 
Title:EMSO Ligure Ouest : Data BathyDock capteur Optode - deploiement "2023-04-28"
Datetime,Profondeur,Latitude,Longitude,optode_type,serial,O2_concentration,O2_saturation,Temperature,Calibrated_Phase,Temp_Compensated_Phase,phase_blue_light,phase_red_light,Amplitude_blue_light,Amplitude_red_light,thermistor_bridge
time,m,degree_north,degree_east,1,1,umol.l-1,%,degree_C,degree,degree,degree,degree,mV,mV,mV
2024-01-30T00:00:07,2420,42.8014,5.9826,4330,272,186.511,57.115,13.304,36.039,36.619,41.209,4.590,296.0,546.6,291.4
2024-01-30T00:03:07,2420,42.8014,5.9826,4330,272,186.585,57.135,13.302,36.035,36.616,41.213,4.597,296.1,546.6,291.5
2024-01-30T00:06:07,2420,42.8014,5.9826,4330,272,186.474,57.102,13.302,36.043,36.623,41.218,4.595,296.1,546.6,291.5
2024-01-30T00:09:07,2420,42.8014,5.9826,4330,272,186.297,57.049,13.303,36.053,36.633,41.224,4.591,296.0,546.6,291.4
2024-01-30T00:12:07,2420,42.8014,5.9826,4330,272,186.211,57.022,13.303,36.060,36.640,41.228,4.589,296.1,546.5,291.5
2024-01-30T00:15:08,2420,42.8014,5.9826,4330,272,186.657,57.158,13.302,36.031,36.611,41.202,4.591,296.1,546.6,291.5
2024-01-30T00:18:08,2420,42.8014,5.9826,4330,272,186.562,57.131,13.304,36.037,36.617,41.207,4.590,296.1,546.6,291.4
2024-01-30T00:21:07,2420,42.8014,5.9826,4330,272,186.738,57.185,13.304,36.025,36.605,41.200,4.595,296.1,546.5,291.4
2024-01-30T00:24:07,2420,42.8014,5.9826,4330,272,186.648,57.156,13.303,36.031,36.611,41.208,4.597,296.0,546.6,291.5
2024-01-30T00:27:07,2420,42.8014,5.9826,4330,272,186.607,57.145,13.304,36.033,36.613,41.207,4.594,296.1,546.6,291.4
2024-01-30T00:30:07,2420,42.8014,5.9826,4330,272,186.353,57.069,13.305,36.049,36.629,41.220,4.591,296.0,546.7,291.4
2024-01-30T00:33:07,2420,42.8014,5.9826,4330,272,186.394,57.079,13.303,36.047,36.627,41.221,4.594,296.1,546.6,291.4
2024-01-30T00:36:07,2420,42.8014,5.9826,4330,272,186.360,57.068,13.303,36.050,36.630,41.222,4.592,296.0,546.6,291.5
2024-01-30T00:39:08,2420,42.8014,5.9826,4330,272,186.770,57.193,13.303,36.023,36.604,41.199,4.595,296.1,546.6,291.5
2024-01-30T00:42:08,2420,42.8014,5.9826,4330,272,186.538,57.126,13.306,36.036,36.616,41.211,4.595,296.0,546.6,291.4
2024-01-30T00:45:08,2420,42.8014,5.9826,4330,272,186.515,57.115,13.303,36.040,36.620,41.208,4.588,296.2,546.6,291.5
2024-01-30T00:48:08,2420,42.8014,5.9826,4330,272,186.562,57.132,13.305,36.035,36.616,41.208,4.592,296.1,546.6,291.4
2024-01-30T00:51:08,2420,42.8014,5.9826,4330,272,186.494,57.110,13.304,36.041,36.621,41.214,4.593,296.2,546.6,291.4
2024-01-30T00:54:07,2420,42.8014,5.9826,4330,272,186.494,57.113,13.306,36.040,36.620,41.217,4.597,296.1,546.6,291.3
2024-01-30T00:57:07,2420,42.8014,5.9826,4330,272,186.713,57.179,13.305,36.025,36.605,41.197,4.591,296.0,546.6,291.4
2024-01-30T01:00:08,2420,42.8014,5.9826,4330,272,186.408,57.091,13.310,36.043,36.623,41.216,4.593,296.1,546.6,291.2
2024-01-30T01:03:07,2420,42.8014,5.9826,4330,272,186.483,57.106,13.303,36.041,36.621,41.210,4.589,296.1,546.6,291.4
2024-01-30T01:06:07,2420,42.8014,5.9826,4330,272,186.308,57.053,13.303,36.053,36.632,41.224,4.592,296.1,546.6,291.4
2024-01-30T01:09:08,2420,42.8014,5.9826,4330,272,186.514,57.118,13.305,36.039,36.619,41.210,4.591,296.0,546.6,291.4
2024-01-30T01:12:08,2420,42.8014,5.9826,4330,272,186.563,57.132,13.304,36.036,36.616,41.211,4.595,296.1,546.6,291.4
2024-01-30T01:15:08,2420,42.8014,5.9826,4330,272,186.457,57.104,13.308,36.041,36.621,41.211,4.590,296.2,546.7,291.3
2024-01-30T01:18:07,2420,42.8014,5.9826,4330,272,186.523,57.119,13.304,36.039,36.619,41.214,4.595,296.1,546.6,291.4
2024-01-30T01:21:07,2420,42.8014,5.9826,4330,272,186.509,57.114,13.304,36.039,36.619,41.211,4.592,296.1,546.6,291.4
2024-01-30T01:24:07,2420,42.8014,5.9826,4330,272,186.483,57.108,13.305,36.041,36.621,41.214,4.593,296.1,546.6,291.4
2024-01-30T01:27:08,2420,42.8014,5.9826,4330,272,186.264,57.042,13.306,36.054,36.634,41.215,4.581,296.0,546.6,291.4
2024-01-30T01:30:08,2420,42.8014,5.9826,4330,272,186.363,57.075,13.308,36.047,36.627,41.219,4.592,296.1,546.6,291.3
2024-01-30T01:33:07,2420,42.8014,5.9826,4330,272,186.672,57.169,13.307,36.027,36.608,41.201,4.593,296.1,546.6,291.3
2024-01-30T01:36:07,2420,42.8014,5.9826,4330,272,186.280,57.047,13.306,36.054,36.634,41.222,4.589,296.1,546.7,291.4
2024-01-30T01:39:07,2420,42.8014,5.9826,4330,272,186.457,57.101,13.305,36.042,36.622,41.214,4.592,296.1,546.6,291.4
2024-01-30T01:42:07,2420,42.8014,5.9826,4330,272,186.669,57.165,13.304,36.029,36.609,41.205,4.596,296.1,546.6,291.4
2024-01-30T01:45:07,2420,42.8014,5.9826,4330,272,186.765,57.193,13.304,36.023,36.603,41.197,4.594,296.0,546.7,291.4
2024-01-30T01:48:08,2420,42.8014,5.9826,4330,272,186.206,57.021,13.303,36.060,36.640,41.226,4.587,296.1,546.7,291.5
2024-01-30T01:51:08,2420,42.8014,5.9826,4330,272,186.159,57.007,13.303,36.063,36.643,41.227,4.584,296.1,546.6,291.4
2024-01-30T01:54:08,2420,42.8014,5.9826,4330,272,186.680,57.168,13.305,36.028,36.608,41.200,4.592,296.0,546.6,291.4
2024-01-30T01:57:08,2420,42.8014,5.9826,4330,272,186.689,57.172,13.306,36.027,36.607,41.199,4.591,296.0,546.6,291.4
2024-01-30T02:00:08,2420,42.8014,5.9826,4330,272,186.550,57.129,13.306,36.036,36.616,41.208,4.592,296.1,546.7,291.4
2024-01-30T02:03:07,2420,42.8014,5.9826,4330,272,186.476,57.107,13.306,36.041,36.621,41.210,4.589,296.1,546.5,291.4
2024-01-30T02:06:07,2420,42.8014,5.9826,4330,272,186.543,57.128,13.306,36.037,36.617,41.212,4.595,296.0,546.6,291.4
2024-01-30T02:09:07,2420,42.8014,5.9826,4330,272,186.273,57.044,13.305,36.054,36.634,41.226,4.592,296.1,546.6,291.4
2024-01-30T02:12:07,2420,42.8014,5.9826,4330,272,186.595,57.143,13.305,36.033,36.613,41.205,4.592,296.0,546.6,291.4
2024-01-30T02:15:08,2420,42.8014,5.9826,4330,272,186.399,57.084,13.307,36.045,36.625,41.214,4.588,296.1,546.6,291.3
2024-01-30T02:18:08,2420,42.8014,5.9826,4330,272,186.476,57.105,13.304,36.042,36.622,41.212,4.591,296.1,546.6,291.4
2024-01-30T02:21:08,2420,42.8014,5.9826,4330,272,186.338,57.066,13.306,36.050,36.630,41.220,4.590,296.1,546.6,291.3
2024-01-30T02:24:08,2420,42.8014,5.9826,4330,272,186.571,57.134,13.304,36.035,36.615,41.204,4.589,296.1,546.7,291.4
2024-01-30T02:27:07,2420,42.8014,5.9826,4330,272,186.277,57.044,13.304,36.055,36.635,41.222,4.587,296.0,546.6,291.4
2024-01-30T02:30:07,2420,42.8014,5.9826,4330,272,186.714,57.178,13.304,36.026,36.606,41.204,4.598,296.1,546.6,291.4
2024-01-30T02:33:07,2420,42.8014,5.9826,4330,272,186.221,57.026,13.303,36.059,36.639,41.232,4.593,296.1,546.6,291.4
2024-01-30T02:36:07,2420,42.8014,5.9826,4330,272,186.226,57.029,13.305,36.058,36.638,41.229,4.591,296.2,546.6,291.4
2024-01-30T02:39:07,2420,42.8014,5.9826,4330,272,186.271,57.043,13.305,36.055,36.635,41.226,4.591,296.1,546.7,291.4
2024-01-30T02:42:07,2420,42.8014,5.9826,4330,272,186.421,57.090,13.306,36.044,36.624,41.216,4.591,296.1,546.6,291.4
2024-01-30T02:45:07,2420,42.8014,5.9826,4330,272,186.365,57.071,13.304,36.049,36.629,41.222,4.593,296.1,546.6,291.4
2024-01-30T02:48:07,2420,42.8014,5.9826,4330,272,186.380,57.076,13.305,36.048,36.628,41.221,4.593,296.1,546.6,291.4
2024-01-30T02:51:08,2420,42.8014,5.9826,4330,272,186.610,57.148,13.305,36.032,36.612,41.205,4.592,296.1,546.6,291.4
2024-01-30T02:54:08,2420,42.8014,5.9826,4330,272,186.296,57.050,13.305,36.053,36.633,41.225,4.593,296.1,546.6,291.4
2024-01-30T02:57:08,2420,42.8014,5.9826,4330,272,186.496,57.113,13.305,36.040,36.620,41.214,4.594,296.2,546.6,291.4
2024-01-30T03:00:08,2420,42.8014,5.9826,4330,272,186.472,57.105,13.305,36.042,36.622,41.214,4.592,296.1,546.6,291.4
2024-01-30T03:03:07,2420,42.8014,5.9826,4330,272,186.607,57.144,13.304,36.034,36.614,41.211,4.597,296.1,546.6,291.4
2024-01-30T03:06:08,2420,42.8014,5.9826,4330,272,186.580,57.140,13.306,36.034,36.614,41.211,4.597,296.1,546.6,291.4
2024-01-30T03:09:08,2420,42.8014,5.9826,4330,272,186.283,57.049,13.307,36.053,36.633,41.215,4.582,296.1,546.6,291.3
2024-01-30T03:12:07,2420,42.8014,5.9826,4330,272,186.503,57.114,13.305,36.040,36.620,41.214,4.595,296.1,546.6,291.4
2024-01-30T03:15:07,2420,42.8014,5.9826,4330,272,186.489,57.112,13.307,36.039,36.619,41.214,4.595,296.1,546.7,291.3
2024-01-30T03:18:07,2420,42.8014,5.9826,4330,272,186.423,57.093,13.308,36.044,36.624,41.217,4.593,296.1,546.7,291.3
2024-01-30T03:21:07,2420,42.8014,5.9826,4330,272,186.491,57.110,13.304,36.041,36.621,41.213,4.592,296.1,546.7,291.4
2024-01-30T03:24:08,2420,42.8014,5.9826,4330,272,186.342,57.066,13.305,36.050,36.630,41.211,4.581,296.1,546.6,291.4
2024-01-30T03:27:08,2420,42.8014,5.9826,4330,272,186.335,57.068,13.309,36.048,36.628,41.216,4.588,296.1,546.6,291.3
2024-01-30T03:30:08,2420,42.8014,5.9826,4330,272,186.556,57.139,13.311,36.033,36.613,41.205,4.592,296.0,546.6,291.2
2024-01-30T03:33:07,2420,42.8014,5.9826,4330,272,186.358,57.077,13.311,36.046,36.626,41.216,4.591,296.0,546.6,291.2
2024-01-30T03:36:07,2420,42.8014,5.9826,4330,272,186.275,57.048,13.308,36.053,36.633,41.219,4.586,296.1,546.6,291.3
2024-01-30T03:39:07,2420,42.8014,5.9826,4330,272,186.430,57.098,13.310,36.042,36.622,41.210,4.587,296.1,546.6,291.2
2024-01-30T03:42:07,2420,42.8014,5.9826,4330,272,186.599,57.163,13.320,36.026,36.606,41.200,4.594,296.2,546.6,290.9
2024-01-30T03:45:08,2420,42.8014,5.9826,4330,272,186.343,57.085,13.320,36.043,36.623,41.218,4.595,296.1,546.6,290.9
2024-01-30T03:48:08,2420,42.8014,5.9826,4330,272,186.489,57.123,13.316,36.036,36.616,41.208,4.593,296.1,546.6,291.0
2024-01-30T03:51:08,2420,42.8014,5.9826,4330,272,186.279,57.058,13.314,36.049,36.629,41.224,4.595,296.1,546.6,291.1
2024-01-30T03:54:08,2420,42.8014,5.9826,4330,272,186.266,57.052,13.313,36.051,36.631,41.218,4.587,296.1,546.7,291.1
2024-01-30T03:57:07,2420,42.8014,5.9826,4330,272,186.251,57.059,13.322,36.048,36.628,41.219,4.591,296.2,546.5,290.8
2024-01-30T04:00:07,2420,42.8014,5.9826,4330,272,186.404,57.092,13.311,36.043,36.623,41.215,4.591,296.1,546.6,291.2
2024-01-30T04:03:07,2420,42.8014,5.9826,4330,272,186.169,57.019,13.311,36.058,36.638,41.227,4.589,296.1,546.7,291.2
2024-01-30T04:06:07,2420,42.8014,5.9826,4330,272,186.245,57.045,13.313,36.053,36.633,41.225,4.592,296.1,546.6,291.1
2024-01-30T04:09:07,2420,42.8014,5.9826,4330,272,186.454,57.105,13.310,36.041,36.621,41.214,4.593,296.1,546.6,291.2
2024-01-30T04:12:07,2420,42.8014,5.9826,4330,272,186.368,57.076,13.307,36.047,36.627,41.215,4.588,296.2,546.6,291.3
2024-01-30T04:15:08,2420,42.8014,5.9826,4330,272,186.456,57.114,13.316,36.037,36.617,41.211,4.595,296.2,546.6,291.0
2024-01-30T04:18:08,2420,42.8014,5.9826,4330,272,186.389,57.094,13.316,36.041,36.621,41.212,4.591,296.1,546.6,291.0
2024-01-30T04:21:08,2420,42.8014,5.9826,4330,272,186.317,57.071,13.316,36.047,36.627,41.219,4.592,296.2,546.6,291.0
2024-01-30T04:24:07,2420,42.8014,5.9826,4330,272,186.465,57.114,13.314,36.037,36.617,41.215,4.597,296.1,546.6,291.1
2024-01-30T04:27:07,2420,42.8014,5.9826,4330,272,186.178,57.024,13.313,36.057,36.637,41.226,4.589,296.1,546.6,291.1
2024-01-30T04:30:07,2420,42.8014,5.9826,4330,272,186.099,57.003,13.315,36.061,36.641,41.232,4.591,296.1,546.5,291.1
2024-01-30T04:33:07,2420,42.8014,5.9826,4330,272,186.328,57.075,13.316,36.046,36.626,41.215,4.590,296.2,546.6,291.0
2024-01-30T04:36:07,2420,42.8014,5.9826,4330,272,186.201,57.036,13.316,36.054,36.634,41.218,4.584,296.1,546.6,291.0
2024-01-30T04:39:08,2420,42.8014,5.9826,4330,272,186.406,57.092,13.311,36.043,36.623,41.218,4.595,296.1,546.5,291.2
2024-01-30T04:42:08,2420,42.8014,5.9826,4330,272,186.297,57.055,13.308,36.052,36.632,41.219,4.587,296.1,546.6,291.3
2024-01-30T04:45:08,2420,42.8014,5.9826,4330,272,186.364,57.076,13.308,36.047,36.627,41.215,4.588,296.2,546.6,291.3
2024-01-30T04:48:08,2420,42.8014,5.9826,4330,272,186.368,57.082,13.312,36.045,36.625,41.216,4.591,296.1,546.6,291.2
2024-01-30T04:51:07,2420,42.8014,5.9826,4330,272,186.338,57.074,13.313,36.046,36.626,41.222,4.597,296.1,546.5,291.1
2024-01-30T04:54:07,2420,42.8014,5.9826,4330,272,186.295,57.059,13.312,36.050,36.630,41.220,4.589,296.1,546.6,291.2
2024-01-30T04:57:07,2420,42.8014,5.9826,4330,272,186.362,57.076,13.309,36.047,36.627,41.219,4.592,296.2,546.6,291.3
2024-01-30T05:00:08,2420,42.8014,5.9826,4330,272,186.427,57.097,13.310,36.043,36.623,41.214,4.591,296.1,546.6,291.2
2024-01-30T05:03:07,2420,42.8014,5.9826,4330,272,186.296,57.064,13.315,36.048,36.628,41.220,4.592,296.0,546.6,291.1
2024-01-30T05:06:07,2420,42.8014,5.9826,4330,272,186.292,57.056,13.310,36.050,36.630,41.223,4.593,296.1,546.6,291.2
2024-01-30T05:09:07,2420,42.8014,5.9826,4330,272,186.635,57.156,13.306,36.030,36.610,41.208,4.598,296.2,546.6,291.3
2024-01-30T05:12:07,2420,42.8014,5.9826,4330,272,186.336,57.069,13.310,36.048,36.628,41.220,4.592,296.2,546.6,291.2
2024-01-30T05:15:07,2420,42.8014,5.9826,4330,272,186.306,57.067,13.315,36.048,36.628,41.217,4.589,296.1,546.6,291.1
2024-01-30T05:18:07,2420,42.8014,5.9826,4330,272,186.161,57.017,13.311,36.059,36.639,41.231,4.592,296.2,546.6,291.2
2024-01-30T05:21:08,2420,42.8014,5.9826,4330,272,186.128,57.005,13.310,36.061,36.641,41.230,4.589,296.2,546.6,291.2
2024-01-30T05:24:07,2420,42.8014,5.9826,4330,272,186.353,57.075,13.310,36.047,36.627,41.215,4.588,296.1,546.6,291.2
2024-01-30T05:27:07,2420,42.8014,5.9826,4330,272,186.422,57.100,13.313,36.041,36.621,41.213,4.592,296.2,546.6,291.1
2024-01-30T05:30:08,2420,42.8014,5.9826,4330,272,186.347,57.070,13.308,36.048,36.628,41.218,4.590,296.1,546.5,291.3
2024-01-30T05:33:07,2420,42.8014,5.9826,4330,272,186.260,57.043,13.307,36.054,36.634,41.227,4.592,296.2,546.6,291.3
2024-01-30T05:36:07,2420,42.8014,5.9826,4330,272,186.295,57.054,13.307,36.052,36.632,41.225,4.594,296.1,546.6,291.3
2024-01-30T05:39:07,2420,42.8014,5.9826,4330,272,186.537,57.127,13.307,36.037,36.617,41.213,4.596,296.1,546.6,291.3
2024-01-30T05:42:07,2420,42.8014,5.9826,4330,272,186.304,57.059,13.309,36.050,36.630,41.223,4.593,296.2,546.6,291.2
2024-01-30T05:45:07,2420,42.8014,5.9826,4330,272,186.407,57.088,13.308,36.044,36.624,41.219,4.594,296.1,546.6,291.3
2024-01-30T05:48:08,2420,42.8014,5.9826,4330,272,186.322,57.062,13.307,36.050,36.630,41.225,4.595,296.2,546.7,291.3
2024-01-30T05:51:08,2420,42.8014,5.9826,4330,272,186.450,57.102,13.308,36.041,36.621,41.216,4.595,296.2,546.6,291.3
2024-01-30T05:54:08,2420,42.8014,5.9826,4330,272,186.453,57.101,13.307,36.042,36.622,41.219,4.597,296.2,546.5,291.3
2024-01-30T05:57:07,2420,42.8014,5.9826,4330,272,186.443,57.100,13.308,36.042,36.622,41.218,4.596,296.2,546.6,291.3
2024-01-30T06:00:07,2420,42.8014,5.9826,4330,272,186.378,57.078,13.307,36.047,36.627,41.219,4.593,296.2,546.7,291.3
2024-01-30T06:03:07,2420,42.8014,5.9826,4330,272,186.430,57.094,13.307,36.044,36.624,41.217,4.593,296.1,546.6,291.3
2024-01-30T06:06:07,2420,42.8014,5.9826,4330,272,186.532,57.124,13.306,36.037,36.617,41.211,4.594,296.2,546.6,291.4
2024-01-30T06:09:07,2420,42.8014,5.9826,4330,272,186.470,57.108,13.308,36.040,36.620,41.215,4.595,296.1,546.6,291.3
2024-01-30T06:12:07,2420,42.8014,5.9826,4330,272,186.459,57.102,13.306,36.042,36.622,41.211,4.589,296.1,546.6,291.4
2024-01-30T06:15:07,2420,42.8014,5.9826,4330,272,186.263,57.045,13.308,36.054,36.634,41.221,4.588,296.1,546.6,291.3
2024-01-30T06:18:07,2420,42.8014,5.9826,4330,272,186.377,57.078,13.307,36.046,36.626,41.220,4.593,296.2,546.6,291.3
2024-01-30T06:21:08,2420,42.8014,5.9826,4330,272,186.357,57.072,13.307,36.048,36.628,41.220,4.592,296.2,546.7,291.3
2024-01-30T06:24:08,2420,42.8014,5.9826,4330,272,186.341,57.067,13.307,36.049,36.629,41.226,4.597,296.2,546.6,291.3
2024-01-30T06:27:08,2420,42.8014,5.9826,4330,272,186.283,57.050,13.308,36.053,36.632,41.224,4.591,296.2,546.7,291.3
2024-01-30T06:30:08,2420,42.8014,5.9826,4330,272,186.145,57.008,13.307,36.062,36.642,41.233,4.591,296.1,546.6,291.3
2024-01-30T06:33:07,2420,42.8014,5.9826,4330,272,186.259,57.040,13.306,36.055,36.635,41.226,4.591,296.2,546.6,291.4
2024-01-30T06:36:07,2420,42.8014,5.9826,4330,272,186.339,57.073,13.312,36.047,36.627,41.218,4.591,296.1,546.6,291.2
2024-01-30T06:39:08,2420,42.8014,5.9826,4330,272,186.522,57.120,13.305,36.038,36.618,41.212,4.593,296.1,546.6,291.4
2024-01-30T06:42:07,2420,42.8014,5.9826,4330,272,186.342,57.066,13.306,36.050,36.630,41.222,4.592,296.2,546.6,291.4
2024-01-30T06:45:07,2420,42.8014,5.9826,4330,272,186.442,57.096,13.305,36.044,36.624,41.217,4.594,296.2,546.7,291.4
2024-01-30T06:48:07,2420,42.8014,5.9826,4330,272,186.356,57.070,13.306,36.049,36.629,41.224,4.595,296.2,546.6,291.4
2024-01-30T06:51:08,2420,42.8014,5.9826,4330,272,186.375,57.075,13.305,36.048,36.628,41.217,4.589,296.1,546.6,291.4
2024-01-30T06:54:08,2420,42.8014,5.9826,4330,272,186.224,57.031,13.306,36.057,36.637,41.228,4.591,296.1,546.6,291.3
2024-01-30T06:57:08,2420,42.8014,5.9826,4330,272,186.388,57.081,13.306,36.046,36.626,41.220,4.594,296.1,546.6,291.3
2024-01-30T07:00:07,2420,42.8014,5.9826,4330,272,186.414,57.089,13.306,36.045,36.625,41.213,4.589,296.1,546.6,291.3
2024-01-30T07:03:07,2420,42.8014,5.9826,4330,272,186.290,57.055,13.309,36.052,36.631,41.227,4.596,296.2,546.6,291.3
2024-01-30T07:06:07,2420,42.8014,5.9826,4330,272,186.251,57.042,13.309,36.054,36.634,41.221,4.587,296.1,546.5,291.3
2024-01-30T07:09:08,2420,42.8014,5.9826,4330,272,186.284,57.048,13.306,36.053,36.633,41.226,4.592,296.3,546.6,291.4
2024-01-30T07:12:08,2420,42.8014,5.9826,4330,272,186.427,57.092,13.305,36.044,36.624,41.222,4.597,296.2,546.6,291.4
2024-01-30T07:15:08,2420,42.8014,5.9826,4330,272,186.241,57.035,13.306,36.056,36.636,41.231,4.595,296.2,546.6,291.4
2024-01-30T07:18:08,2420,42.8014,5.9826,4330,272,186.289,57.052,13.308,36.052,36.632,41.222,4.590,296.2,546.6,291.3
2024-01-30T07:21:07,2420,42.8014,5.9826,4330,272,186.219,57.027,13.305,36.058,36.638,41.227,4.589,296.1,546.6,291.4
2024-01-30T07:24:07,2420,42.8014,5.9826,4330,272,186.230,57.033,13.307,36.056,36.636,41.230,4.593,296.2,546.6,291.3
2024-01-30T07:27:07,2420,42.8014,5.9826,4330,272,186.108,56.996,13.307,36.064,36.644,41.236,4.592,296.1,546.7,291.3
2024-01-30T07:30:08,2420,42.8014,5.9826,4330,272,186.402,57.087,13.308,36.045,36.625,41.217,4.593,296.2,546.6,291.3
2024-01-30T07:33:07,2420,42.8014,5.9826,4330,272,186.498,57.116,13.307,36.039,36.619,41.213,4.594,296.2,546.5,291.3
2024-01-30T07:36:08,2420,42.8014,5.9826,4330,272,186.366,57.074,13.306,36.047,36.627,41.221,4.594,296.2,546.6,291.4
2024-01-30T07:39:08,2420,42.8014,5.9826,4330,272,186.388,57.079,13.305,36.047,36.627,41.223,4.596,296.1,546.6,291.4
2024-01-30T07:42:08,2420,42.8014,5.9826,4330,272,186.080,56.990,13.309,36.065,36.645,41.231,4.586,296.2,546.6,291.2
2024-01-30T07:45:07,2420,42.8014,5.9826,4330,272,186.449,57.098,13.305,36.043,36.623,41.214,4.591,296.2,546.6,291.4
2024-01-30T07:48:07,2420,42.8014,5.9826,4330,272,186.360,57.070,13.305,36.048,36.628,41.223,4.594,296.2,546.7,291.4
2024-01-30T07:51:07,2420,42.8014,5.9826,4330,272,186.419,57.088,13.305,36.045,36.625,41.216,4.591,296.2,546.6,291.4
2024-01-30T07:54:07,2420,42.8014,5.9826,4330,272,186.310,57.055,13.305,36.052,36.632,41.224,4.592,296.2,546.6,291.4
2024-01-30T07:57:08,2420,42.8014,5.9826,4330,272,186.433,57.092,13.305,36.044,36.624,41.214,4.590,296.2,546.7,291.4
2024-01-30T08:00:08,2420,42.8014,5.9826,4330,272,186.371,57.075,13.306,36.048,36.628,41.221,4.593,296.1,546.7,291.4
2024-01-30T08:03:07,2420,42.8014,5.9826,4330,272,186.422,57.088,13.304,36.046,36.626,41.215,4.590,296.2,546.6,291.4
2024-01-30T08:06:07,2420,42.8014,5.9826,4330,272,186.276,57.045,13.305,36.054,36.634,41.228,4.594,296.2,546.6,291.4
2024-01-30T08:09:07,2420,42.8014,5.9826,4330,272,186.325,57.063,13.308,36.049,36.629,41.221,4.592,296.1,546.5,291.3
2024-01-30T08:12:07,2420,42.8014,5.9826,4330,272,186.443,57.096,13.305,36.043,36.623,41.214,4.591,296.1,546.6,291.4
2024-01-30T08:15:07,2420,42.8014,5.9826,4330,272,186.443,57.098,13.307,36.042,36.622,41.211,4.588,296.2,546.6,291.3
2024-01-30T08:18:08,2420,42.8014,5.9826,4330,272,186.400,57.086,13.308,36.045,36.625,41.219,4.594,296.2,546.6,291.3
2024-01-30T08:21:08,2420,42.8014,5.9826,4330,272,186.168,57.013,13.306,36.060,36.640,41.233,4.593,296.1,546.6,291.4
2024-01-30T08:24:08,2420,42.8014,5.9826,4330,272,186.500,57.113,13.305,36.040,36.620,41.212,4.592,296.2,546.5,291.4
2024-01-30T08:27:08,2420,42.8014,5.9826,4330,272,186.359,57.069,13.304,36.050,36.630,41.221,4.591,296.1,546.6,291.4
2024-01-30T08:30:07,2420,42.8014,5.9826,4330,272,186.143,57.004,13.305,36.063,36.643,41.233,4.590,296.2,546.7,291.4
2024-01-30T08:33:07,2420,42.8014,5.9826,4330,272,186.362,57.072,13.306,36.049,36.628,41.216,4.588,296.1,546.7,291.4
2024-01-30T08:36:07,2420,42.8014,5.9826,4330,272,186.349,57.066,13.304,36.049,36.629,41.222,4.593,296.2,546.7,291.4
2024-01-30T08:39:08,2420,42.8014,5.9826,4330,272,186.144,57.005,13.305,36.062,36.642,41.227,4.585,296.2,546.6,291.4
2024-01-30T08:42:08,2420,42.8014,5.9826,4330,272,186.356,57.070,13.305,36.049,36.629,41.222,4.593,296.2,546.7,291.4
2024-01-30T08:45:08,2420,42.8014,5.9826,4330,272,186.260,57.041,13.306,36.055,36.635,41.224,4.589,296.2,546.6,291.4
2024-01-30T08:48:08,2420,42.8014,5.9826,4330,272,186.246,57.037,13.306,36.056,36.636,41.228,4.592,296.1,546.7,291.4
2024-01-30T08:51:07,2420,42.8014,5.9826,4330,272,186.198,57.021,13.305,36.060,36.640,41.229,4.589,296.2,546.7,291.4
2024-01-30T08:54:07,2420,42.8014,5.9826,4330,272,186.380,57.077,13.305,36.048,36.628,41.225,4.597,296.1,546.6,291.4
2024-01-30T08:57:08,2420,42.8014,5.9826,4330,272,186.380,57.076,13.305,36.048,36.628,41.218,4.590,296.2,546.6,291.4
2024-01-30T09:00:08,2420,42.8014,5.9826,4330,272,186.190,57.019,13.305,36.060,36.640,41.233,4.593,296.2,546.6,291.4
2024-01-30T09:03:07,2420,42.8014,5.9826,4330,272,186.261,57.042,13.306,36.055,36.634,41.225,4.590,296.2,546.6,291.3
2024-01-30T09:06:07,2420,42.8014,5.9826,4330,272,186.599,57.146,13.307,36.033,36.613,41.208,4.595,296.1,546.6,291.3
2024-01-30T09:09:07,2420,42.8014,5.9826,4330,272,186.342,57.062,13.303,36.051,36.631,41.223,4.592,296.1,546.6,291.5
2024-01-30T09:12:07,2420,42.8014,5.9826,4330,272,186.312,57.054,13.304,36.053,36.633,41.225,4.592,296.2,546.7,291.4
2024-01-30T09:15:07,2420,42.8014,5.9826,4330,272,186.417,57.086,13.304,36.046,36.626,41.217,4.591,296.2,546.6,291.4
2024-01-30T09:18:07,2420,42.8014,5.9826,4330,272,186.589,57.138,13.303,36.035,36.615,41.208,4.593,296.1,546.6,291.5
2024-01-30T09:21:08,2420,42.8014,5.9826,4330,272,186.345,57.069,13.307,36.049,36.629,41.221,4.592,296.1,546.6,291.3
2024-01-30T09:24:08,2420,42.8014,5.9826,4330,272,186.226,57.030,13.306,36.057,36.637,41.228,4.591,296.2,546.6,291.4
2024-01-30T09:27:08,2420,42.8014,5.9826,4330,272,186.233,57.032,13.305,36.057,36.637,41.226,4.590,296.2,546.7,291.4
2024-01-30T09:30:08,2420,42.8014,5.9826,4330,272,186.358,57.069,13.304,36.049,36.629,41.220,4.591,296.2,546.6,291.4
2024-01-30T09:33:07,2420,42.8014,5.9826,4330,272,186.334,57.063,13.305,36.051,36.631,41.221,4.591,296.1,546.7,291.4
2024-01-30T09:36:07,2420,42.8014,5.9826,4330,272,186.301,57.054,13.306,36.052,36.632,41.220,4.588,296.2,546.6,291.4
2024-01-30T09:39:07,2420,42.8014,5.9826,4330,272,186.349,57.067,13.305,36.049,36.629,41.225,4.595,296.1,546.6,291.4
2024-01-30T09:42:07,2420,42.8014,5.9826,4330,272,186.362,57.074,13.307,36.047,36.627,41.214,4.587,296.1,546.5,291.3
2024-01-30T09:45:08,2420,42.8014,5.9826,4330,272,186.287,57.047,13.304,36.055,36.634,41.222,4.587,296.2,546.7,291.4
2024-01-30T09:48:08,2420,42.8014,5.9826,4330,272,186.439,57.094,13.305,36.044,36.624,41.221,4.597,296.1,546.7,291.4
2024-01-30T09:51:08,2420,42.8014,5.9826,4330,272,186.713,57.180,13.306,36.025,36.605,41.198,4.593,296.2,546.7,291.4
2024-01-30T09:54:08,2420,42.8014,5.9826,4330,272,186.403,57.083,13.305,36.046,36.626,41.224,4.597,296.1,546.7,291.4
2024-01-30T09:57:08,2420,42.8014,5.9826,4330,272,186.493,57.110,13.304,36.041,36.621,41.210,4.589,296.2,546.7,291.4
2024-01-30T10:00:07,2420,42.8014,5.9826,4330,272,186.317,57.057,13.305,36.052,36.632,41.225,4.594,296.2,546.6,291.4